[[{"header":{"parameterUnit":"m.s-1","parameterCategory":1,"la1":30.2991,"la2":30.254,"lo1":-89.0895,"lo2":-89.0444,"dy":0.0017,"dx":0.0017,"nx":28,"ny":28,"refTime":"2025-06-20T21:00:00:Z","depth":0,"parameterNumber":2,"parameterNumberName":"U-component_of_WINDS"},"data":[0,0,0,0,0,0,0,0,0,0,0,0,0,0,0,0,0,0,0,0,0,0,0,0,0,0,0,0,0,0,0,0,0,0,0,0,0,0,0,0,0,0,0,0,0,0,0,0,0,0,0,0,0,0,0,0,0,0,0.9256,0.9257,0,0.9341,0.9342,0.9343,0.9346,0.9344,0.9343,0.9342,0.9431,0.9434,0.9437,0,0,0,0,0,0,0,0,0,0,0,0,0,0.9095,0.9098,0.9256,0.9257,0.9258,0.9341,0.9342,0.9344,0.9346,0.9344,0.9343,0.9342,0.943,0.9434,0.9438,0,0,0,0,0,0,0,0,0,0,0,0,0,0.9171,0.9099,0.9256,0.9269,0.9271,0.9341,0.9342,0.9344,0.9346,0.9344,0.9343,0.9341,0.9428,0.9433,0.9438,0.9501,0,0,0.9454,0.9456,0,0,0,0,0,0,0,0,0.9167,0.9177,0.9266,0.9269,0.9271,0.9331,0.9318,0.9396,0.9346,0.9318,0.9342,0.9341,0.9399,0.9406,0.9426,0.9505,0.9509,0.9454,0.9457,0.9459,0.9461,0,0,0,0,0,0,0,0.9161,0.9173,0.929,0.9268,0.9271,0.9271,0.928,0.9333,0.9366,0.932,0.932,0.933,0.94,0.9421,0.9428,0.951,0.9454,0.9458,0.9461,0.9463,0.9642,0.9643,0,0,0,0,0,0,0.9154,0.9169,0.9287,0.9292,0.9214,0.9275,0.9285,0.9314,0.9366,0.9372,0.9332,0.933,0.9413,0.9422,0.9431,0.9505,0.9459,0.9464,0.9467,0.964,0.9642,0.9644,0,0,0,0,0,0,0.915,0.9164,0.9284,0.9231,0.9246,0.928,0.9311,0.9316,0.9337,0.9374,0.938,0.9347,0.9412,0.9424,0.9483,0.9509,0.9466,0.9471,0.9638,0.964,0.9643,0.9656,0,0,0,0,0,0,0.9145,0.9163,0.9187,0.9231,0.9249,0.9334,0.9313,0.9319,0.9345,0.9344,0.939,0.9396,0.9412,0.9475,0.9488,0.9515,0.9475,0.9636,0.9639,0.9642,0.9653,0.9659,0.9663,0,0,0,0,0,0.914,0.9188,0.9188,0.9203,0.928,0.9336,0.9346,0.9362,0.9348,0.9372,0.9395,0.9395,0.9504,0.9481,0.9495,0.9524,0.9634,0.9638,0.9642,0.9651,0.9658,0.9663,0,0,0,0,0,0,0.9147,0.9194,0.9195,0.9259,0.9293,0.9336,0.9367,0.9369,0.9408,0.9406,0.9425,0.9435,0.9493,0.9515,0.9488,0.9586,0.9567,0.9574,0.9569,0.9576,0.9581,0.9574,0.9479,0,0,0,0,0,0.9155,0.9197,0.9236,0.9289,0.9306,0.9334,0.9359,0.9368,0.9404,0.9419,0.9447,0.9482,0.9524,0.9552,0.9593,0.9657,0.9666,0.9684,0.9689,0.9692,0.9698,0.9731,0.9739,0.9657,0.9657,0.9657,0,0,0.9174,0.9206,0.9231,0.9291,0.9319,0.936,0.9346,0.9391,0.9422,0.9426,0.9482,0.9504,0.9545,0.9606,0.9634,0.9626,0.9723,0.9697,0.97,0.9704,0.9736,0.9744,0.9751,0.9659,0.9659,0.9658,0,0,0.923,0.9258,0.9304,0.9332,0.9373,0.9391,0.9402,0.9444,0.9459,0.9515,0.9519,0.9556,0.9628,0.9656,0.968,0.9744,0.9745,0.9757,0.9783,0.9815,0.9821,0.9827,0.9848,0.9856,0.9763,0.9763,0.9763,0,0.9248,0.9311,0.9328,0.9373,0.9398,0.9403,0.9449,0.9475,0.9528,0.9546,0.9536,0.9625,0.9653,0.9719,0.9735,0.9755,0.9767,0.9752,0.9819,0.9825,0.9831,0.9851,0.9859,0.9764,0.9764,0.9764,0.9764,0,0.933,0.9374,0.9406,0.9456,0.9486,0.9531,0.9554,0.9582,0.9589,0.9607,0.9664,0.9698,0.9744,0.9761,0.9769,0.9828,0.9821,0.9815,0.9796,0.9839,0.9859,0.9867,0.9765,0.9765,0.9765,0.9764,0,0,0.9392,0.945,0.9461,0.9483,0.9529,0.9563,0.9608,0.9653,0.9675,0.9712,0.9749,0.9809,0.9803,0.983,0.9841,0.9869,0.9915,0.9859,0.986,0.9867,0.998,0.9983,0.9992,0.9916,0.9918,0.9919,0.9976,0,0.9451,0.9531,0.9547,0.9615,0.9655,0.966,0.9699,0.973,0.9749,0.9785,0.9805,0.9847,0.9837,0.9852,0.9881,0.9904,0.9938,0.99,0.995,0.9951,0.9938,1.0003,1.0007,1.0059,0.9984,0.9985,0.9986,0,0.953,0.9567,0.964,0.9678,0.9695,0.973,0.9772,0.9806,0.9842,0.9853,0.9882,0.989,0.9936,0.9915,0.9978,0.9952,0.9973,0.9987,0.999,0.9994,0.997,1.0007,1.0077,1.0084,0.9999,0.9998,0.9997,0,0.9565,0.9634,0.9685,0.9704,0.9751,0.9775,0.9796,0.983,0.9855,0.9892,0.9908,0.995,0.9972,1.0004,1.0022,1.0006,1.0082,1.0064,1.0092,1.0091,1.0107,1.0106,1.0179,1.0124,1.0123,1.0123,1.0123,0,0.9628,0.9672,0.9701,0.9733,0.9782,0.9799,0.9847,0.9867,0.9897,0.9932,0.994,0.9973,0.9995,1.0031,1.0045,1.0094,1.0104,1.0114,1.0117,1.0113,1.0111,1.0126,1.0122,1.0125,1.0125,1.0125,1.0124,0,0.9675,0.9697,0.9753,0.9793,0.9804,0.9838,0.9871,0.9902,0.992,0.9964,0.9975,1.0004,1.0046,1.0067,1.012,1.013,1.0184,1.0186,1.0172,1.0172,1.0198,1.0195,1.0283,1.0295,1.0233,1.0233,1.0234,0,0.9713,0.9747,0.979,0.9813,0.9834,0.9873,0.9898,0.9917,0.9943,0.9985,1.001,1.0053,1.0088,1.0155,1.018,1.022,1.0222,1.025,1.0228,1.0221,1.022,1.0217,1.0219,1.0253,1.0254,1.0254,1.0255,0,0.9777,0.9786,0.9823,0.9863,0.9893,0.9925,0.9957,0.9977,1.0,1.0029,1.0072,1.0099,1.0152,1.0193,1.0235,1.0256,1.0259,1.0261,1.027,1.0264,1.0254,1.0258,1.018,1.0259,1.0259,1.0258,1.0258,1.0258,0.982,0.9849,0.9883,0.9923,0.9949,0.9979,1.0008,1.003,1.0066,1.011,1.0119,1.0164,1.0197,1.0253,1.0275,1.031,1.0304,1.0317,1.032,1.0322,1.0322,1.025,1.0318,1.0318,1.0318,1.0318,1.0318,0,0.9882,0.9905,0.9941,0.9985,1.0017,1.0017,1.0052,1.0078,1.0117,1.0148,1.0182,1.023,1.027,1.0298,1.0338,1.036,1.0363,1.037,1.0368,1.0372,1.0326,1.0314,1.0368,1.0368,1.0368,1.0368,1.0368,1.0368,0.9919,0.9968,0.998,1.0041,1.0063,1.0107,1.0127,1.0153,1.0178,1.0231,1.0264,1.0282,1.0312,1.0354,1.039,1.0397,1.0411,1.0418,1.0425,1.0381,1.0376,1.0371,1.0359,1.0422,1.0422,1.0468,1.0468,1.0469]},{"header":{"parameterUnit":"m.s-1","parameterCategory":1,"la1":30.2991,"la2":30.254,"lo1":-89.0895,"lo2":-89.0444,"dy":0.0017,"dx":0.0017,"nx":28,"ny":28,"refTime":"2025-06-20T21:00:00:Z","depth":0,"parameterNumber":3,"parameterNumberName":"V-component_of_WINDS"},"data":[0,0,0,0,0,0,0,0,0,0,0,0,0,0,0,0,0,0,0,0,0,0,0,0,0,0,0,0,0,0,0,0,0,0,0,0,0,0,0,0,0,0,0,0,0,0,0,0,0,0,0,0,0,0,0,0,0,0,4.8467,4.8467,0,4.8391,4.839,4.8389,4.8352,4.8353,4.8353,4.8353,4.8265,4.8263,4.8261,0,0,0,0,0,0,0,0,0,0,0,0,0,4.8575,4.8573,4.8467,4.8466,4.8466,4.8391,4.839,4.8389,4.8352,4.8353,4.8353,4.8353,4.8266,4.8263,4.826,0,0,0,0,0,0,0,0,0,0,0,0,0,4.8516,4.8573,4.8468,4.8439,4.8435,4.8391,4.839,4.8388,4.8352,4.8353,4.8353,4.8353,4.8267,4.8264,4.826,4.8236,0,0,4.8249,4.8248,0,0,0,0,0,0,0,0,4.852,4.8512,4.8444,4.8441,4.8437,4.8381,4.8396,4.8337,4.8352,4.8384,4.8353,4.8353,4.8303,4.8297,4.8282,4.8232,4.8228,4.8249,4.8247,4.8245,4.8244,0,0,0,0,0,0,0,4.8524,4.8515,4.8437,4.8443,4.8439,4.8427,4.8419,4.8384,4.8343,4.8381,4.8378,4.837,4.8301,4.8285,4.8279,4.8227,4.8249,4.8246,4.8243,4.8242,4.8153,4.8153,0,0,0,0,0,0,4.8534,4.8519,4.8439,4.8434,4.848,4.8425,4.8416,4.8399,4.8344,4.8336,4.837,4.8369,4.8291,4.8284,4.8276,4.8245,4.8245,4.8242,4.824,4.8153,4.8153,4.8153,0,0,0,0,0,0,4.8536,4.8527,4.8442,4.8476,4.8464,4.8423,4.8404,4.8397,4.8382,4.8336,4.8327,4.8362,4.8291,4.8281,4.8247,4.8241,4.824,4.8237,4.8154,4.8153,4.8153,4.8181,0,0,0,0,0,0,4.8539,4.8528,4.852,4.8476,4.8463,4.8417,4.8404,4.8396,4.8377,4.8374,4.8326,4.8318,4.8291,4.8253,4.8243,4.8236,4.8234,4.8154,4.8154,4.8153,4.8181,4.8182,4.8183,0,0,0,0,0,4.8543,4.8529,4.852,4.851,4.8453,4.8416,4.8408,4.838,4.8376,4.8367,4.8338,4.8319,4.8244,4.8249,4.8239,4.823,4.8154,4.8154,4.8153,4.818,4.8182,4.8183,0,0,0,0,0,0,4.857,4.8523,4.8512,4.8484,4.8455,4.841,4.8398,4.8382,4.8351,4.835,4.8313,4.8302,4.8271,4.8247,4.8254,4.8204,4.8197,4.8194,4.8221,4.8222,4.8224,4.8229,4.8231,0,0,0,0,0,4.8573,4.8551,4.8509,4.8488,4.8475,4.8439,4.8422,4.8403,4.837,4.8357,4.8325,4.8291,4.826,4.824,4.8208,4.8178,4.8166,4.8166,4.8168,4.8169,4.8167,4.8148,4.8148,4.8151,4.8151,4.8151,0,0,4.8578,4.855,4.8537,4.8493,4.8468,4.8443,4.8429,4.8402,4.8383,4.8352,4.8318,4.8294,4.8254,4.8222,4.8205,4.82,4.8164,4.8168,4.817,4.8167,4.8148,4.8148,4.8147,4.8151,4.8151,4.8151,0,0,4.8575,4.8552,4.8532,4.8508,4.8472,4.8449,4.8445,4.8403,4.8386,4.8353,4.8329,4.8304,4.8251,4.8224,4.8203,4.8192,4.8173,4.8182,4.8188,4.817,4.817,4.817,4.8165,4.8164,4.818,4.818,4.818,0,4.8585,4.8549,4.8523,4.8499,4.848,4.8454,4.8433,4.841,4.8364,4.835,4.8346,4.828,4.8251,4.8212,4.821,4.8194,4.8186,4.8187,4.8173,4.8172,4.8171,4.8166,4.8165,4.8181,4.8181,4.8181,4.8181,0,4.8563,4.8539,4.8526,4.8487,4.8466,4.8444,4.8412,4.8394,4.8377,4.8353,4.8319,4.8284,4.8246,4.8235,4.8216,4.8193,4.8191,4.8181,4.8172,4.8173,4.8168,4.8165,4.8183,4.8183,4.8182,4.8182,0,0,4.8573,4.8521,4.8517,4.8499,4.8458,4.8437,4.8413,4.8379,4.8364,4.8333,4.8311,4.8267,4.8258,4.8234,4.8213,4.8198,4.8191,4.8189,4.8187,4.819,4.8162,4.817,4.8168,4.8179,4.8178,4.8178,4.8165,0,4.8563,4.8522,4.8498,4.8465,4.8442,4.8418,4.8396,4.8368,4.8346,4.832,4.8294,4.8264,4.8254,4.824,4.8224,4.8195,4.8184,4.8195,4.8155,4.8154,4.8166,4.8166,4.8173,4.8163,4.8163,4.8163,4.8162,0,4.8547,4.8521,4.8487,4.845,4.8439,4.8421,4.8387,4.8364,4.8331,4.8316,4.8291,4.827,4.8241,4.8237,4.8196,4.8204,4.8186,4.8169,4.8168,4.8162,4.8158,4.8159,4.8159,4.8157,4.8159,4.8159,4.8159,0,4.8557,4.8513,4.8487,4.8472,4.8429,4.8416,4.8397,4.8364,4.8345,4.8315,4.8302,4.8268,4.8249,4.8223,4.8192,4.8192,4.8154,4.8147,4.8139,4.814,4.8131,4.8131,4.8127,4.8121,4.8121,4.8121,4.8121,0,4.8549,4.8528,4.8491,4.8475,4.8452,4.8424,4.84,4.8379,4.835,4.8328,4.8304,4.8283,4.8245,4.8218,4.8194,4.8164,4.8155,4.814,4.8134,4.8142,4.8144,4.8129,4.8128,4.812,4.812,4.8121,4.8121,0,4.8555,4.853,4.85,4.8463,4.8453,4.8437,4.8403,4.8386,4.8363,4.8335,4.8327,4.829,4.8258,4.8226,4.8181,4.8165,4.8135,4.8127,4.8147,4.8144,4.8137,4.8138,4.8122,4.8118,4.8116,4.8116,4.8116,0,4.8551,4.8536,4.8498,4.8483,4.8465,4.8441,4.8422,4.8394,4.8375,4.8337,4.8324,4.8291,4.8263,4.8212,4.818,4.8146,4.8136,4.8133,4.813,4.8139,4.8135,4.8136,4.8134,4.8133,4.8134,4.8134,4.8134,0,4.8547,4.8536,4.8512,4.8484,4.8463,4.8439,4.8413,4.8401,4.8367,4.8347,4.8316,4.8295,4.8252,4.8218,4.8181,4.8158,4.814,4.8136,4.8132,4.8139,4.8152,4.8145,4.8149,4.8135,4.8135,4.8135,4.8135,4.8135,4.8547,4.8533,4.8505,4.8478,4.8457,4.8434,4.8417,4.8393,4.8368,4.8332,4.8317,4.8285,4.8252,4.82,4.8178,4.8151,4.8146,4.8141,4.8139,4.8138,4.814,4.8158,4.8144,4.8144,4.8144,4.8144,4.8144,0,4.8541,4.8523,4.8499,4.8466,4.8445,4.8434,4.8405,4.8388,4.8362,4.8334,4.8308,4.8272,4.824,4.8206,4.8172,4.8157,4.8148,4.8149,4.8149,4.8144,4.8146,4.8153,4.8157,4.8157,4.8157,4.8157,4.8157,4.8157,4.8536,4.8511,4.8496,4.846,4.844,4.8412,4.8397,4.8375,4.8353,4.8315,4.829,4.8269,4.8238,4.8202,4.8172,4.8162,4.815,4.8154,4.8142,4.8145,4.8144,4.8143,4.8149,4.8152,4.8152,4.8141,4.8141,4.8141]}]]